sat.trackr.live / text

‹ back to catalog

ONEWEB-0625

NORAD 55166 · 2023-004AC

PAYLOAD ACTIVE UNKNOWN

§ Identity

Operator
Country
UK
Launch date
2023-01-10
Launch site
AFETR
Launch vehicle
Mass (kg)
RCS (m²)

Purposes: comms

External: N2YO · Heavens-Above · Gunter

§ Orbital elements

Epoch: 2026-05-25T03:37:48.330912Z

Period
109.29 min
Inclination
87.9152°
Eccentricity
0.0001825
Mean motion
13.17649621 rev/d
Perigee alt
1,192.3 km
Apogee alt
1,195.1 km
Semi-major
7,571.8 km
B*
2.6067e-4
RAAN
10.4558°
Arg perigee
79.1751°
Mean anomaly
280.9586°
Rev number
16,454

§ Raw data

ONEWEB-06251 55166U 23004AC  26145.15125383  .00000114  00000+0  26067-3 0  99972 55166  87.9152  10.4558 0001825  79.1751 280.9586 13.17649621164544

JSON: /api/v1/satellites/55166 · /tle

For live sub-satellite position, see the globe view (requires WebGL).

§ Visibility from observer

Set your observer location to see the next 7 days of passes ≥ 10°. The values pass through the URL so the page stays shareable.

No JS? Fill the form by hand. The geolocation button needs JavaScript.